This is the latest recevied weather packets stored in our database for station/object N8VDS-10. If no packets are shown the sender has not sent any weather packets the latest 10 day(s).
| Time | Temp. | Humidity | Pressure | Rain* | Wind** | Luminosity | Snow |
|---|---|---|---|---|---|---|---|
| 1777851099 | 14.44° C | 50% | 1011.7 hPa | 0 mm | - | 34 W/m² | - |
| 1777850796 | 14.44° C | 48% | 1011.4 hPa | 0 mm | - | 36 W/m² | - |
| 1777850494 | 14.44° C | 48% | 1011.6 hPa | 0 mm | - | 51 W/m² | - |
| 1777850192 | 14.44° C | 48% | 1011.6 hPa | 0 mm | - | 65 W/m² | - |
| 1777849888 | 14.44° C | 48% | 1011.4 hPa | 0 mm | - | 41 W/m² | - |
| 1777849585 | 14.44° C | 47% | 1011.5 hPa | 0 mm | - | 35 W/m² | - |
| 1777849282 | 15° C | 46% | 1011.6 hPa | 0 mm | - | 39 W/m² | - |
| 1777848980 | 15° C | 47% | 1011.5 hPa | 0 mm | - | 37 W/m² | - |
| 1777848679 | 15° C | 46% | 1011.7 hPa | 0 mm | - | 41 W/m² | - |
| 1777848377 | 15° C | 45% | 1011.7 hPa | 0 mm | - | 38 W/m² | - |
| 1777848075 | 15° C | 45% | 1011.6 hPa | 0 mm | - | 33 W/m² | - |
| 1777847773 | 15° C | 44% | 1011.9 hPa | 0 mm | - | 37 W/m² | - |
| 1777847468 | 15.56° C | 43% | 1011.9 hPa | 0 mm | - | 37 W/m² | - |
| 1777847166 | 15.56° C | 43% | 1011.8 hPa | 0 mm | - | 39 W/m² | - |
| 1777846863 | 15.56° C | 43% | 1011.9 hPa | 0 mm | - | 43 W/m² | - |
| 1777846562 | 15.56° C | 42% | 1011.9 hPa | 0 mm | - | 41 W/m² | - |
| 1777846259 | 15.56° C | 42% | 1011.8 hPa | 0 mm | - | 48 W/m² | - |
| 1777845955 | 15.56° C | 42% | 1011.9 hPa | 0 mm | - | 57 W/m² | - |
| 1777845652 | 15.56° C | 42% | 1011.9 hPa | 0 mm | - | 70 W/m² | - |
| 1777845349 | 16.11° C | 41% | 1011.9 hPa | 0 mm | - | 77 W/m² | - |
| 1777845046 | 16.11° C | 42% | 1011.7 hPa | 0 mm | - | 83 W/m² | - |
| 1777844744 | 16.11° C | 41% | 1011.6 hPa | 0 mm | - | 164 W/m² | - |
| 1777844440 | 16.11° C | 41% | 1011.7 hPa | 0 mm | - | 191 W/m² | - |
| 1777844139 | 16.11° C | 41% | 1011.7 hPa | 0 mm | - | 172 W/m² | - |
| 1777843835 | 16.11° C | 40% | 1011.7 hPa | 0 mm | - | 202 W/m² | - |
* Rain latest hour (hover to see other rain measurements)
** Current wind speed in m/s (hover to see current wind gust speed)